Regional Weather Roundup
Issued by NWS

Home | Current Version | Previous Version | Graphics & Text | Print | Product List | Glossary Off
Versions: 1 2 3 4 5 6 7 8 9 10 11 12 13 14 15 16 17 18 19 20 21 22 23 24 25 26 27 28 29 30 31 32 33 34 35 36 37 38 39 40 41 42 43 44 45 46 47 48 49 50

000
ASUS43 KMKX 301321
RWRWI

WISCONSIN REGIONAL WEATHER ROUNDUP
NATIONAL WEATHER SERVICE MILWAUKEE/SULLIVAN WI
800 AM CDT SAT MAY 30 2015

NOTE: "FAIR" INDICATES FEW OR NO CLOUDS BELOW 12,000 FEET WITH NO
SIGNIFICANT WEATHER AND/OR OBSTRUCTIONS TO VISIBILITY.

WIZ001-002-006>008-014>016-023>028-301400-
NORTHWEST WISCONSIN

CITY           SKY/WX    TMP DP  RH WIND       PRES   REMARKS
SUPERIOR ARPT  SUNNY     47  36  66 N6        30.25R
ASHLAND        CLOUDY    48  39  71 N14G22    30.23R
HAYWARD        CLOUDY    47  39  74 NE14      30.19R
SIREN          MOSUNNY   47  38  73 N7        30.21R
CUMBERLAND     CLOUDY    45  39  81 N13       30.18R
RICE LAKE      CLOUDY    48  41  76 N15       30.18R
CHETEK         CLOUDY    49  44  81 N14G21    30.16R
LADYSMITH      CLOUDY    49  45  84 N13G18    30.16R
EAU CLAIRE     CLOUDY    52  44  74 N10       30.12R
MENOMONIE      CLOUDY    51  44  78 N13       30.16R
NEW RICHMOND   MOSUNNY   48  41  76 N15G21    30.19R
OSCEOLA        MOSUNNY   47  42  82 N13G18    30.23R
$$

WIZ003>005-009-010-017-018-301400-
NORTH CENTRAL WISCONSIN

CITY           SKY/WX    TMP DP  RH WIND       PRES   REMARKS
MANITOWISH WTR CLOUDY    46  46 100 NE9       30.15R
ARBOR VITAE    CLOUDY    52  50  93 N12       30.13R
WOODRUFF       CLOUDY    52  50  93 N12       30.13R
RHINELANDER    LGT RAIN  50  47  89 NE9       30.13R FOG
EAGLE RIVER    CLOUDY    48  44  85 NE13      30.12R
LAND O LAKES   CLOUDY    47  45  95 NE7       30.15R FOG
PHILLIPS       CLOUDY    47  45  91 N16       30.13R
TOMAHAWK       CLOUDY    49  48  95 N7        30.12R FOG
MEDFORD        CLOUDY    50  47  92 N13G18    30.10R
MERRILL        CLOUDY    53  49  88 NE10G17   30.10R
$$

WIZ029-030-035-036-043>047-301400-
CENTRAL WISCONSIN

CITY           SKY/WX    TMP DP  RH WIND       PRES   REMARKS
WAUSAU         CLOUDY    54  49  83 VRB7      30.08R
MOSINEE        LGT RAIN  54  52  94 NE9       30.09R
MARSHFIELD     CLOUDY    55  49  80 N8        30.09R
STEVENS POINT  DRIZZLE   52  49  90 NE7       30.09R
WAUPACA        DRIZZLE   54  53  97 NE7       30.08R
WAUTOMA        LGT RAIN  52  52 100 NE15G21   30.07R FOG
WISC RAPIDS    CLOUDY    55  48  77 E10       30.08R
CAMP DOUGLAS   CLOUDY    55  55 100 NE8       30.06R
$$

WIZ011>013-019>022-031-037>040-048>050-301400-
NORTHEAST WISCONSIN

CITY           SKY/WX    TMP DP  RH WIND       PRES   REMARKS
ANTIGO         CLOUDY    51  48  92 NE13      30.09R
SHAWANO        DRIZZLE   55  51  89 NE15      30.09R
OCONTO         CLOUDY    51  50  96 N10       30.08R
STURGEON BAY   CLOUDY    50  45  81 N10       30.11R
GREEN BAY      LGT RAIN  53  50  89 N12       30.08R
MANITOWOC      LGT RAIN  50  48  93 NE7G16    30.07R
APPLETON       LGT RAIN  52  50  93 NE17G28   30.06R FOG
CLINTONVILLE   LGT RAIN  54  52  94 CALM      30.08R
OSHKOSH        RAIN      53  49  86 NE16G26   30.07R FOG
$$

WIZ032>034-041-042-053>061-301400-
SOUTHWEST WISCONSIN

CITY           SKY/WX    TMP DP  RH WIND       PRES   REMARKS
LA CROSSE      CLOUDY    56  50  80 N14       30.07R
SPARTA         CLOUDY    53  52  94 N7        30.07R
VIROQUA        CLOUDY    54  54 100 N14G21    30.05R
BOSCOBEL       LGT RAIN  60  57  89 NE9       30.02R FOG
PRAIRIE DU CHI CLOUDY    60  55  84 NW12G17   30.01R
PLATTEVILLE    CLOUDY    63  62  95 N12       29.98R
$$

WIZ056-057-062-063-064-067-068-301400-
SOUTH CENTRAL WISCONSIN

CITY           SKY/WX    TMP DP  RH WIND       PRES   REMARKS
REEDSBURG      CLOUDY    56  55  96 N10G17    30.02R
BARABOO/DELLS  LGT RAIN  55  53  93 NE12G20   30.02R
LONE ROCK      CLOUDY    62  58  86 N15G23    29.99R
MINERAL POINT  CLOUDY    63  61  94 N10G18    29.97R
MADISON        LGT RAIN  64  59  83 N22       29.96R
MIDDLETON      CLOUDY    67  65  94 CALM      29.97R
WATERTOWN      HVY RAIN N/A N/A N/A NE18      29.97R
MONROE         CLOUDY    64  63  94 S7        29.96S
JANESVILLE     PTSUNNY   66  64  94 S6        29.96R
$$

WIZ051-052-058>065-066-070>072-301400-
SOUTHEAST WISCONSIN

CITY           SKY/WX    TMP DP  RH WIND       PRES   REMARKS
MILWAUKEE      LGT RAIN  51  49  92 NE15G22   30.02R FOG
WAUKESHA       RAIN      52  52 100 NE8G22    30.02R
MILWAUKEE/TIMM LGT RAIN  52  48  87 MISG      30.03R
RACINE         RAIN      51  48  89 N17G23    30.03R FOG
BURLINGTON     RAIN      64  63  98 CALM      29.98R
KENOSHA        LGT RAIN  56  54  93 NE14      30.00R
FOND DU LAC    LGT RAIN  55  52  89 NE15G22   30.05R FOG
SHEBOYGAN      LGT RAIN  51  48  89 NE16G30   30.04R
WEST BEND      LGT RAIN  52  46  82 NE13G20   30.03R
JUNEAU         LGT RAIN  55  53  95 E14       30.02R
$$

LSZ147-162-301400-
LAKE SUPERIOR

STATION/POSITION TIME  TEMP    WIND        PRES    WAVE
                       AIR SEA DIR/SP/G            HT/PER
                 (UTC) (F)     (DEG/KT/KT) (MB)    (FT/S)
W MID LAKE BUOY  1250   40 37  350/ 12/ 14   N/A     1/ 4
DEVILS ISLAND    1300   42      10/  7/  8   N/A
PORT WING        1200   45     340/  8/  9   N/A
SAXON HARBOR     1200   46      50/  5/  7   N/A
$$

LMZ867-665-643>646-301400-
LAKE MICHIGAN

STATION/POSITION TIME  TEMP    WIND        PRES    WAVE
                       AIR SEA DIR/SP/G            HT/PER
                 (UTC) (F)     (DEG/KT/KT) (MB)    (FT/S)
CHAMBERS ISLAND  1200   51     350/ 15/ 18   N/A
N MID LAKE BUOY  1250   40 37  330/  4/  6   N/A     2/ 4
NORTHPORT PIER   1300   49     350/ 21       N/A
SISTER BAY       1248   50      10/ 13/ 18   N/A
ALGOMA LAKESHORE 1223          350/  9/ 14   N/A
KEWAUNEE LAKESHO 1200   48      20/  7/ 12   N/A
SHEBOYGAN LAKESH 1300   48     360/ 23/ 24   N/A
PORT WASHINGTON  1200   53      30/ 12/ 26   N/A
ATWATER BUOY     1300   51      20/ 16/ 19   N/A
MILWAUKEE LAKESH 1300   51      20/ 16/ 20   N/A
S MID LAKE BUOY  1250   46 38  310/  4/  6   N/A     1
KENOSHA   LAKESH 1300   51      10/ 18/ 21   N/A
$$

TC  - TEMPERATURE IN CELSIUS
VSB - VISIBILITY IN STATUTE MILES
WCI - WIND CHILL INDEX
HX  - HEAT INDEX



USA.gov is the U.S. government's official web portal to all federal, state and local government web resources and services.